Portada
METAR-TAF:

METAR-TAF

Aeroports :

University-Oxford_Airport

Oxford, Mississipí, Estats Units d'Amèrica

latitud: 34-23-04N, longitud: 089-32-08W, altitud: 138 m

Observació

L'informe es va fer fa 13 minuts, a les 15:35 UTC
Vent 5 kt del Nord amb ràfegues de 12 kt
Temperatura 25°C
Humitat 54%
Pressió 1022 hPa
Visibilitat: 14.5 km
Cel clar

METAR: KUOX 301535Z AUTO 36005G12KT 9SM CLR 25/15 A3017 RMK AO2

Hora: 10:48 (15:48 UTC)


TAF: manca

Observacions i pronòstics meteorològics de més de 4000 aeroports (METAR i TAF).

Les estacions disponibles són els punts grocs i vermells al mapa.

Posi el ratolí al punt desitjat per veure el nom de l'estació.

Feu clic per veure les observacions i els pronòstics meteorològics.

Per canviar el mapa: feu clic els botons verds amb una creu de color negre per apropar; al botó verd amb un guió per allunyar la imatge; o en les fletxes verdes per a mapes adjacents.


METAR-TAF: